STARLINK-35086

Last updated on Mon Oct 20 2025 00:02:06 GMT+0000 (Coordinated Universal Time)

1 65699U 25212Z 25292.25002315 -.02194962 00000+0 -77407-1 0 9995 2 65699 53.1599 282.9679 0001449 66.9771 304.3710 15.32324140 5565
UTC large
Height (km)
Speed (km/s)
/
Latitude / Longitude
Inclination (degrees)
Orbital Period (minutes)
Azimuth
Elevation
Range (km)
Doppler Factor

Next 0 passes for location: London (51.5072 / 0.1276)

Sorry there are no passes over London.